TimeCST,TemperatureF,Dew PointF,Humidity,Sea Level PressureIn,VisibilityMPH,Wind Direction,Wind SpeedMPH,Gust SpeedMPH,PrecipitationIn,Events,Conditions,WindDirDegrees,DateUTC
12:15 AM,26.6,10.4,51,30.13,10.0,NW,18.4,24.2,N/A,,Partly Cloudy,310,2013-03-05 06:15:00
1:35 AM,24.8,10.4,54,30.14,10.0,NW,17.3,25.3,N/A,,Clear,310,2013-03-05 07:35:00
1:55 AM,24.8,12.2,59,30.14,10.0,NW,15.0,-,N/A,,Clear,310,2013-03-05 07:55:00
2:15 AM,24.8,12.2,59,30.14,10.0,WNW,15.0,18.4,N/A,,Clear,300,2013-03-05 08:15:00
2:35 AM,24.8,12.2,59,30.14,10.0,NW,13.8,-,N/A,,Partly Cloudy,310,2013-03-05 08:35:00
2:55 AM,24.8,12.2,59,30.14,10.0,WNW,17.3,-,N/A,,Partly Cloudy,300,2013-03-05 08:55:00
3:15 AM,24.8,12.2,59,30.14,10.0,WNW,23.0,28.8,N/A,,Clear,300,2013-03-05 09:15:00
3:35 AM,24.8,10.4,54,30.14,10.0,WNW,28.8,40.3,N/A,,Partly Cloudy,300,2013-03-05 09:35:00
3:55 AM,24.8,10.4,54,30.14,10.0,WNW,25.3,41.4,N/A,,Clear,300,2013-03-05 09:55:00
4:15 AM,24.8,10.4,54,30.14,10.0,WNW,25.3,33.4,N/A,,Clear,300,2013-03-05 10:15:00
4:35 AM,23.0,10.4,59,30.14,10.0,NW,28.8,35.7,N/A,,Clear,310,2013-03-05 10:35:00
4:55 AM,24.8,10.4,54,30.15,10.0,WNW,28.8,47.2,N/A,,Clear,300,2013-03-05 10:55:00
5:15 AM,23.0,8.6,54,30.15,10.0,NW,26.5,36.8,N/A,,Clear,310,2013-03-05 11:15:00
5:35 AM,23.0,10.4,59,30.18,10.0,WNW,23.0,28.8,N/A,,Clear,300,2013-03-05 11:35:00
5:55 AM,21.2,10.4,63,30.19,10.0,WNW,23.0,31.1,N/A,,Clear,300,2013-03-05 11:55:00
6:15 AM,21.2,10.4,63,30.19,10.0,WNW,26.5,34.5,N/A,,Clear,300,2013-03-05 12:15:00
6:35 AM,21.2,10.4,63,30.20,10.0,WNW,21.9,31.1,N/A,,Clear,290,2013-03-05 12:35:00
6:55 AM,21.2,10.4,63,30.21,10.0,WNW,21.9,35.7,N/A,,Clear,300,2013-03-05 12:55:00
7:15 AM,21.2,10.4,63,30.21,10.0,WNW,24.2,34.5,N/A,,Clear,300,2013-03-05 13:15:00
7:35 AM,21.2,10.4,63,30.21,10.0,WNW,20.7,31.1,N/A,,Clear,300,2013-03-05 13:35:00
7:55 AM,21.2,10.4,63,30.22,10.0,WNW,23.0,33.4,N/A,,Clear,300,2013-03-05 13:55:00
8:15 AM,23.0,10.4,59,30.23,10.0,WNW,23.0,34.5,N/A,,Clear,300,2013-03-05 14:15:00
8:35 AM,24.8,10.4,54,30.24,10.0,WNW,25.3,34.5,N/A,,Clear,300,2013-03-05 14:35:00
8:55 AM,24.8,12.2,59,30.24,10.0,WNW,27.6,34.5,N/A,,Clear,300,2013-03-05 14:55:00
9:15 AM,24.8,12.2,59,30.25,10.0,NW,26.5,36.8,N/A,,Clear,310,2013-03-05 15:15:00
9:35 AM,26.6,12.2,55,30.26,10.0,NW,25.3,34.5,N/A,,Clear,310,2013-03-05 15:35:00
9:55 AM,26.6,10.4,51,30.26,10.0,WNW,25.3,36.8,N/A,,Clear,300,2013-03-05 15:55:00
10:15 AM,28.4,12.2,51,30.27,10.0,NW,24.2,34.5,N/A,,Clear,310,2013-03-05 16:15:00
10:35 AM,28.4,12.2,51,30.27,10.0,NW,29.9,41.4,N/A,,Clear,310,2013-03-05 16:35:00
10:55 AM,28.4,12.2,51,30.28,10.0,NW,25.3,36.8,N/A,,Clear,310,2013-03-05 16:55:00
11:15 AM,30.2,12.2,47,30.28,10.0,NW,26.5,33.4,N/A,,Clear,310,2013-03-05 17:15:00
11:35 AM,30.2,12.2,47,30.29,10.0,NW,23.0,32.2,N/A,,Clear,310,2013-03-05 17:35:00
11:55 AM,32.0,12.2,44,30.29,10.0,NW,26.5,33.4,N/A,,Clear,320,2013-03-05 17:55:00
12:15 PM,32.0,12.2,44,30.29,10.0,WNW,19.6,26.5,N/A,,Clear,300,2013-03-05 18:15:00
12:35 PM,33.8,12.2,41,30.30,10.0,NW,20.7,27.6,N/A,,Clear,320,2013-03-05 18:35:00
12:55 PM,33.8,12.2,41,30.30,10.0,NW,18.4,21.9,N/A,,Clear,310,2013-03-05 18:55:00
1:15 PM,35.6,12.2,38,30.30,10.0,NW,18.4,24.2,N/A,,Clear,310,2013-03-05 19:15:00
1:35 PM,35.6,12.2,38,30.29,10.0,NW,21.9,27.6,N/A,,Clear,310,2013-03-05 19:35:00
1:55 PM,35.6,14.0,41,30.29,10.0,NNW,17.3,26.5,N/A,,Clear,330,2013-03-05 19:55:00
2:15 PM,37.4,12.2,36,30.29,10.0,NW,15.0,27.6,N/A,,Clear,310,2013-03-05 20:15:00
2:35 PM,37.4,12.2,36,30.29,10.0,NW,20.7,27.6,N/A,,Clear,310,2013-03-05 20:35:00
2:55 PM,37.4,12.2,36,30.28,10.0,NW,12.7,27.6,N/A,,Clear,310,2013-03-05 20:55:00
3:15 PM,37.4,14.0,38,30.29,10.0,NNW,21.9,25.3,N/A,,Clear,330,2013-03-05 21:15:00
3:35 PM,37.4,12.2,36,30.28,10.0,NNW,20.7,24.2,N/A,,Clear,330,2013-03-05 21:35:00
3:55 PM,37.4,12.2,36,30.28,10.0,NNW,13.8,24.2,N/A,,Clear,330,2013-03-05 21:55:00
4:15 PM,37.4,12.2,36,30.29,10.0,NW,13.8,-,N/A,,Clear,310,2013-03-05 22:15:00
4:35 PM,37.4,12.2,36,30.29,10.0,NNW,17.3,23.0,N/A,,Clear,340,2013-03-05 22:35:00
4:55 PM,37.4,12.2,36,30.30,10.0,NW,12.7,20.7,N/A,,Clear,320,2013-03-05 22:55:00
5:15 PM,35.6,12.2,38,30.30,10.0,NNW,18.4,-,N/A,,Clear,340,2013-03-05 23:15:00
5:35 PM,35.6,12.2,38,30.30,10.0,North,13.8,-,N/A,,Clear,350,2013-03-05 23:35:00
5:55 PM,35.6,12.2,38,30.30,10.0,NNW,15.0,-,N/A,,Clear,340,2013-03-05 23:55:00
6:15 PM,33.8,14.0,44,30.31,10.0,North,11.5,-,N/A,,Clear,10,2013-03-06 00:15:00
6:35 PM,30.2,14.0,51,30.31,10.0,North,10.4,-,N/A,,Clear,350,2013-03-06 00:35:00
6:55 PM,28.4,14.0,55,30.32,10.0,North,10.4,-,N/A,,Clear,10,2013-03-06 00:55:00
7:15 PM,26.6,15.8,64,30.32,10.0,North,8.1,-,N/A,,Clear,360,2013-03-06 01:15:00
7:35 PM,28.4,15.8,59,30.34,10.0,NNW,5.8,-,N/A,,Clear,340,2013-03-06 01:35:00
7:55 PM,28.4,17.6,64,30.34,10.0,NNW,6.9,-,N/A,,Clear,330,2013-03-06 01:55:00
8:15 PM,26.6,15.8,64,30.34,10.0,NNW,8.1,-,N/A,,Clear,340,2013-03-06 02:15:00
8:35 PM,24.8,15.8,69,30.33,10.0,North,5.8,-,N/A,,Clear,350,2013-03-06 02:35:00
8:55 PM,21.2,15.8,80,30.33,10.0,North,9.2,-,N/A,,Clear,10,2013-03-06 02:55:00
9:15 PM,21.2,15.8,80,30.34,10.0,North,8.1,-,N/A,,Clear,360,2013-03-06 03:15:00
9:35 PM,24.8,15.8,69,30.35,10.0,NNW,4.6,-,N/A,,Clear,330,2013-03-06 03:35:00
9:55 PM,24.8,15.8,69,30.36,10.0,WNW,4.6,-,N/A,,Clear,290,2013-03-06 03:55:00
10:15 PM,24.8,17.6,74,30.36,10.0,NW,3.5,-,N/A,,Clear,310,2013-03-06 04:15:00
10:35 PM,24.8,15.8,69,30.36,10.0,NNW,4.6,-,N/A,,Clear,340,2013-03-06 04:35:00
10:55 PM,23.0,14.0,68,30.37,10.0,NNW,3.5,-,N/A,,Clear,340,2013-03-06 04:55:00
11:15 PM,21.2,15.8,80,30.36,10.0,NW,4.6,-,N/A,,Clear,310,2013-03-06 05:15:00
11:35 PM,19.4,15.8,86,30.36,10.0,North,4.6,-,N/A,,Clear,10,2013-03-06 05:35:00
11:55 PM,19.4,15.8,86,30.36,10.0,North,4.6,-,N/A,,Clear,10,2013-03-06 05:55:00